| time (UTC) | temp C | wind direction | speed KPH | gust KPH | rain 1hr cm | rain 24hr cm | rain mn cm | humidity % | barometer mb |
| 20260504192004 | 21 | 200 | 4.8 | 16.1 | 0.00 | 0.00 | 0.00 | 38 | 1012.1 |
| 20260504191504 | 21 | 63 | 4.8 | 12.9 | 0.00 | 0.00 | 0.00 | 39 | 1012.2 |
| 20260504191004 | 21 | 228 | 6.4 | 14.5 | 0.00 | 0.00 | 0.00 | 39 | 1012.3 |
| 20260504190504 | 21 | 208 | 6.4 | 12.9 | 0.00 | 0.00 | 0.00 | 38 | 1012.2 |
| 20260504190004 | 21 | 345 | 6.4 | 14.5 | 0.00 | 0.00 | 0.00 | 38 | 1012.3 |
| 20260504185004 | 21 | 209 | 6.4 | 14.5 | 0.00 | 0.00 | 0.00 | 38 | 1012.4 |
| 20260504184504 | 21 | 178 | 4.8 | 12.9 | 0.00 | 0.00 | 0.00 | 37 | 1012.6 |
| 20260504184004 | 20 | 212 | 1.6 | 11.3 | 0.00 | 0.00 | 0.00 | 39 | 1012.7 |
| 20260504183504 | 20 | 209 | 11.3 | 19.3 | 0.00 | 0.00 | 0.00 | 38 | 1012.6 |
| 20260504183005 | 20 | 216 | 8.0 | 14.5 | 0.00 | 0.00 | 0.00 | 38 | 1012.7 |
| 20260504182504 | 20 | 244 | 9.7 | 16.1 | 0.00 | 0.00 | 0.00 | 37 | 1012.7 |
| 20260504182004 | 20 | 205 | 4.8 | 16.1 | 0.00 | 0.00 | 0.00 | 37 | 1012.9 |
| 20260504181504 | 20 | 230 | 3.2 | 11.3 | 0.00 | 0.00 | 0.00 | 37 | 1012.9 |
| 20260504180504 | 20 | 187 | 4.8 | 22.5 | 0.00 | 0.00 | 0.00 | 39 | 1013.1 |
| 20260504180004 | 20 | 208 | 4.8 | 11.3 | 0.00 | 0.00 | 0.00 | 37 | 1013.2 |
| 20260504175004 | 20 | 320 | 3.2 | 11.3 | 0.00 | 0.00 | 0.00 | 38 | 1013.2 |
| 20260504174504 | 20 | 348 | 1.6 | 9.7 | 0.00 | 0.00 | 0.00 | 39 | 1013.3 |
| 20260504174004 | 20 | 188 | 6.4 | 14.5 | 0.00 | 0.00 | 0.00 | 38 | 1013.4 |
| 20260504173504 | 20 | 254 | 3.2 | 12.9 | 0.00 | 0.00 | 0.00 | 39 | 1013.6 |
| 20260504173004 | 20 | 94 | 3.2 | 9.7 | 0.00 | 0.00 | 0.00 | 38 | 1013.5 |
| 20260504172004 | 20 | 324 | 4.8 | 11.3 | 0.00 | 0.00 | 0.00 | 37 | 1013.5 |
| 20260504171504 | 20 | 212 | 8.0 | 14.5 | 0.00 | 0.00 | 0.00 | 38 | 1013.6 |
| 20260504171004 | 19 | 182 | 3.2 | 14.5 | 0.00 | 0.00 | 0.00 | 38 | 1013.8 |
| 20260504170504 | 20 | 225 | 4.8 | 20.9 | 0.00 | 0.00 | 0.00 | 39 | 1013.9 |
| 20260504151004 | 18 | 212 | 4.8 | 11.3 | 0.00 | 0.00 | 0.00 | 43 | 1015.1 |
| 20260504150504 | 17 | 310 | 6.4 | 11.3 | 0.00 | 0.00 | 0.00 | 43 | 1015.2 |
| 20260504141004 | 15 | 210 | 8.0 | 14.5 | 0.00 | 0.00 | 0.00 | 52 | 1015.2 |
| 20260504140504 | 15 | 194 | 6.4 | 11.3 | 0.00 | 0.00 | 0.00 | 53 | 1015.2 |
| 20260504130504 | 13 | 215 | 8.0 | 12.9 | 0.00 | 0.00 | 0.00 | 62 | 1015.6 |
| 20260504110504 | 9 | 209 | 3.2 | 12.9 | 0.00 | 0.00 | 0.00 | 66 | 1016.0 |
| 20260504100504 | 7 | 180 | 3.2 | 9.7 | 0.00 | 0.00 | 0.00 | 60 | 1015.9 |
| 20260504082004 | 7 | 221 | 0.0 | 1.6 | 0.00 | 0.00 | 0.00 | 56 | 1015.9 |
| 20260504081504 | 8 | 193 | 0.0 | 4.8 | 0.00 | 0.00 | 0.00 | 55 | 1015.9 |
| 20260504081004 | 8 | 173 | 0.0 | 3.2 | 0.00 | 0.00 | 0.00 | 54 | 1015.9 |
| 20260504080504 | 8 | 185 | 0.0 | 3.2 | 0.00 | 0.00 | 0.00 | 53 | 1015.9 |
| 20260504050504 | 8 | 208 | 0.0 | 0.0 | 0.00 | 0.00 | 0.00 | 52 | 1015.9 |
| 20260504050004 | 8 | 208 | 0.0 | 1.6 | 0.00 | 0.00 | 0.00 | 52 | 1015.9 |
| 20260504045504 | 8 | 196 | 0.0 | 0.0 | 0.00 | 0.00 | 0.00 | 51 | 1015.9 |
| 20260504045004 | 8 | 225 | 0.0 | 0.0 | 0.00 | 0.00 | 0.00 | 52 | 1015.9 |
| 20260504044504 | 8 | 229 | 0.0 | 0.0 | 0.00 | 0.00 | 0.00 | 52 | 1015.8 |
| 20260504043504 | 8 | 230 | 0.0 | 0.0 | 0.00 | 0.00 | 0.00 | 52 | 1015.8 |
| 20260504043004 | 8 | 230 | 0.0 | 0.0 | 0.00 | 0.00 | 0.00 | 52 | 1015.8 |
| 20260504042505 | 8 | 230 | 0.0 | 0.0 | 0.00 | 0.00 | 0.00 | 52 | 1015.7 |
| 20260504042004 | 8 | 230 | 0.0 | 0.0 | 0.00 | 0.00 | 0.00 | 52 | 1015.7 |
| 20260504041504 | 8 | 215 | 0.0 | 0.0 | 0.00 | 0.00 | 0.00 | 53 | 1015.6 |
| 20260504041005 | 8 | 207 | 0.0 | 0.0 | 0.00 | 0.00 | 0.00 | 51 | 1015.5 |
| 20260504040505 | 8 | 207 | 0.0 | 0.0 | 0.00 | 0.00 | 0.00 | 52 | 1015.5 |
| 20260504040004 | 8 | 207 | 0.0 | 0.0 | 0.00 | 0.00 | 0.00 | 52 | 1015.5 |
| 20260504035504 | 8 | 207 | 0.0 | 0.0 | 0.00 | 0.00 | 0.00 | 51 | 1015.5 |
| 20260504035004 | 8 | 207 | 0.0 | 0.0 | 0.00 | 0.00 | 0.00 | 51 | 1015.4 |
| 20260504034504 | 8 | 207 | 0.0 | 0.0 | 0.00 | 0.00 | 0.00 | 51 | 1015.4 |
| 20260504034004 | 9 | 207 | 0.0 | 1.6 | 0.00 | 0.00 | 0.00 | 51 | 1015.4 |
| 20260504033504 | 9 | 217 | 0.0 | 3.2 | 0.00 | 0.00 | 0.00 | 51 | 1015.3 |
| 20260504033004 | 9 | 233 | 0.0 | 3.2 | 0.00 | 0.00 | 0.00 | 50 | 1015.3 |
| 20260504032504 | 9 | 89 | 0.0 | 1.6 | 0.00 | 0.00 | 0.00 | 51 | 1015.3 |
| 20260504032004 | 9 | 228 | 0.0 | 0.0 | 0.00 | 0.00 | 0.00 | 50 | 1015.4 |
| 20260504031004 | 9 | 306 | 0.0 | 1.6 | 0.00 | 0.00 | 0.00 | 50 | 1015.3 |
| 20260504030505 | 9 | 305 | 0.0 | 1.6 | 0.00 | 0.00 | 0.00 | 50 | 1015.2 |
| 20260504030004 | 9 | 221 | 0.0 | 1.6 | 0.00 | 0.00 | 0.00 | 49 | 1015.3 |
| 20260504025504 | 10 | 229 | 0.0 | 1.6 | 0.00 | 0.00 | 0.00 | 49 | 1015.2 |
| 20260504025004 | 9 | 230 | 1.6 | 3.2 | 0.00 | 0.00 | 0.00 | 49 | 1015.2 |
| 20260504024504 | 9 | 232 | 0.0 | 1.6 | 0.00 | 0.00 | 0.00 | 49 | 1015.3 |
| 20260504024004 | 9 | 213 | 0.0 | 1.6 | 0.00 | 0.00 | 0.00 | 49 | 1015.4 |
| 20260504023004 | 9 | 296 | 0.0 | 1.6 | 0.00 | 0.00 | 0.00 | 50 | 1015.3 |
| 20260504022004 | 10 | 247 | 0.0 | 1.6 | 0.00 | 0.00 | 0.00 | 49 | 1015.3 |
| 20260504021504 | 10 | 259 | 0.0 | 0.0 | 0.00 | 0.00 | 0.00 | 48 | 1015.4 |
| 20260504021004 | 10 | 259 | 0.0 | 3.2 | 0.00 | 0.00 | 0.00 | 48 | 1015.4 |
| 20260504020504 | 10 | 235 | 0.0 | 1.6 | 0.00 | 0.00 | 0.00 | 48 | 1015.3 |
| 20260504020004 | 10 | 217 | 0.0 | 3.2 | 0.00 | 0.00 | 0.00 | 48 | 1015.3 |
| 20260504015504 | 10 | 235 | 0.0 | 0.0 | 0.00 | 0.00 | 0.00 | 47 | 1015.2 |
| 20260504015004 | 10 | 235 | 0.0 | 0.0 | 0.00 | 0.00 | 0.00 | 47 | 1015.2 |
| 20260504014507 | 10 | 235 | 0.0 | 3.2 | 0.00 | 0.00 | 0.00 | 46 | 1015.1 |
| 20260504014004 | 10 | 264 | 0.0 | 3.2 | 0.00 | 0.00 | 0.00 | 47 | 1015.2 |
| 20260504013504 | 10 | 257 | 0.0 | 1.6 | 0.00 | 0.00 | 0.00 | 47 | 1015.1 |
| 20260504012504 | 10 | 22 | 0.0 | 1.6 | 0.00 | 0.00 | 0.00 | 46 | 1015.1 |
| 20260504011504 | 11 | 37 | 0.0 | 1.6 | 0.00 | 0.00 | 0.00 | 45 | 1015.0 |
| 20260504011004 | 11 | 37 | 0.0 | 1.6 | 0.00 | 0.00 | 0.00 | 44 | 1014.9 |
| 20260504010504 | 11 | 41 | 0.0 | 0.0 | 0.00 | 0.00 | 0.00 | 44 | 1014.8 |
| 20260504010004 | 11 | 41 | 0.0 | 0.0 | 0.00 | 0.00 | 0.00 | 44 | 1014.8 |
| 20260504005504 | 11 | 341 | 0.0 | 3.2 | 0.00 | 0.00 | 0.00 | 45 | 1014.7 |
| 20260504004504 | 11 | 304 | 0.0 | 1.6 | 0.00 | 0.00 | 0.00 | 43 | 1014.6 |
| 20260504004004 | 11 | 341 | 0.0 | 1.6 | 0.00 | 0.00 | 0.00 | 43 | 1014.6 |
| 20260504003504 | 11 | 329 | 0.0 | 0.0 | 0.00 | 0.00 | 0.00 | 42 | 1014.5 |
| 20260504003004 | 11 | 329 | 0.0 | 1.6 | 0.00 | 0.00 | 0.00 | 41 | 1014.5 |
| 20260504002004 | 12 | 48 | 0.0 | 0.0 | 0.00 | 0.00 | 0.00 | 40 | 1014.3 |
| 20260504001504 | 12 | 48 | 0.0 | 0.0 | 0.00 | 0.00 | 0.00 | 39 | 1014.3 |
| 20260504001004 | 12 | 48 | 0.0 | 0.0 | 0.00 | 0.00 | 0.00 | 39 | 1014.2 |
| 20260504000505 | 12 | 47 | 1.6 | 4.8 | 0.00 | 0.00 | 0.00 | 38 | 1014.2 |
| 20260504000004 | 13 | 47 | 0.0 | 4.8 | 0.00 | 0.00 | 0.00 | 38 | 1014.1 |
| 20260503235504 | 13 | 322 | 0.0 | 4.8 | 0.00 | 0.00 | 0.00 | 37 | 1014.1 |
| 20260503235005 | 13 | 358 | 1.6 | 4.8 | 0.00 | 0.00 | 0.00 | 38 | 1014.0 |
| 20260503234504 | 13 | 18 | 3.2 | 12.9 | 0.00 | 0.00 | 0.00 | 36 | 1014.0 |
| 20260503234004 | 13 | 15 | 3.2 | 4.8 | 0.00 | 0.00 | 0.00 | 35 | 1013.9 |
| 20260503233504 | 13 | 15 | 0.0 | 8.0 | 0.00 | 0.00 | 0.00 | 36 | 1013.9 |
| 20260503233005 | 13 | 330 | 1.6 | 9.7 | 0.00 | 0.00 | 0.00 | 35 | 1013.9 |
| 20260503232504 | 13 | 357 | 1.6 | 9.7 | 0.00 | 0.00 | 0.00 | 35 | 1013.8 |
| 20260503232004 | 13 | 4 | 0.0 | 9.7 | 0.00 | 0.00 | 0.00 | 37 | 1013.9 |
| 20260503230504 | 14 | 61 | 3.2 | 8.0 | 0.00 | 0.00 | 0.00 | 34 | 1013.8 |
| 20260503230004 | 14 | 12 | 1.6 | 8.0 | 0.00 | 0.00 | 0.00 | 34 | 1013.7 |
| 20260503225504 | 14 | 324 | 3.2 | 8.0 | 0.00 | 0.00 | 0.00 | 34 | 1013.7 |
| 20260503225004 | 14 | 2 | 3.2 | 8.0 | 0.00 | 0.00 | 0.00 | 34 | 1013.7 |
| 20260503224504 | 14 | 351 | 3.2 | 9.7 | 0.00 | 0.00 | 0.00 | 34 | 1013.7 |
| 20260503224004 | 14 | 0 | 4.8 | 12.9 | 0.00 | 0.00 | 0.00 | 34 | 1013.7 |
| 20260503223504 | 14 | 4 | 1.6 | 12.9 | 0.00 | 0.00 | 0.00 | 34 | 1013.8 |
| 20260503223004 | 14 | 11 | 1.6 | 14.5 | 0.00 | 0.00 | 0.00 | 34 | 1013.7 |
| 20260503222504 | 14 | 359 | 3.2 | 14.5 | 0.00 | 0.00 | 0.00 | 33 | 1013.7 |
| 20260503222004 | 15 | 351 | 3.2 | 11.3 | 0.00 | 0.00 | 0.00 | 33 | 1013.8 |
| 20260503221504 | 15 | 356 | 4.8 | 11.3 | 0.00 | 0.00 | 0.00 | 32 | 1013.6 |
| 20260503221004 | 15 | 348 | 4.8 | 14.5 | 0.00 | 0.00 | 0.00 | 32 | 1013.6 |
| 20260503220004 | 15 | 332 | 8.0 | 19.3 | 0.00 | 0.00 | 0.00 | 31 | 1013.6 |
| 20260503215504 | 15 | 355 | 9.7 | 19.3 | 0.00 | 0.00 | 0.00 | 31 | 1013.7 |
| 20260503215004 | 15 | 316 | 6.4 | 12.9 | 0.00 | 0.00 | 0.00 | 32 | 1013.5 |
| 20260503214504 | 15 | 349 | 4.8 | 9.7 | 0.00 | 0.00 | 0.00 | 31 | 1013.6 |
| 20260503214003 | 15 | 333 | 4.8 | 11.3 | 0.00 | 0.00 | 0.00 | 33 | 1013.6 |
| 20260503213504 | 15 | 6 | 3.2 | 14.5 | 0.00 | 0.00 | 0.00 | 33 | 1013.6 |
| 20260503212504 | 15 | 17 | 6.4 | 11.3 | 0.00 | 0.00 | 0.00 | 31 | 1013.5 |
| 20260503212004 | 15 | 352 | 4.8 | 12.9 | 0.00 | 0.00 | 0.00 | 32 | 1013.5 |
| 20260503211504 | 14 | 358 | 6.4 | 16.1 | 0.00 | 0.00 | 0.00 | 34 | 1013.6 |
| 20260503211004 | 14 | 348 | 8.0 | 19.3 | 0.00 | 0.00 | 0.00 | 32 | 1013.5 |
| 20260503210504 | 14 | 5 | 8.0 | 16.1 | 0.00 | 0.00 | 0.00 | 31 | 1013.5 |
| 20260503210005 | 15 | 2 | 8.0 | 16.1 | 0.00 | 0.00 | 0.00 | 33 | 1013.5 |
| 20260503205504 | 14 | 353 | 4.8 | 12.9 | 0.00 | 0.00 | 0.00 | 34 | 1013.5 |
| 20260503205005 | 14 | 354 | 6.4 | 12.9 | 0.00 | 0.00 | 0.00 | 33 | 1013.5 |
| 20260503204504 | 14 | 352 | 3.2 | 9.7 | 0.00 | 0.00 | 0.00 | 35 | 1013.6 |
| 20260503204004 | 14 | 10 | 1.6 | 14.5 | 0.00 | 0.00 | 0.00 | 34 | 1013.7 |
| 20260503203505 | 14 | 9 | 8.0 | 16.1 | 0.00 | 0.00 | 0.00 | 33 | 1013.7 |
| 20260503203004 | 14 | 24 | 8.0 | 19.3 | 0.00 | 0.00 | 0.00 | 32 | 1013.6 |
| 20260503202004 | 14 | 325 | 8.0 | 19.3 | 0.00 | 0.00 | 0.00 | 33 | 1013.7 |
| 20260503201504 | 13 | 353 | 8.0 | 14.5 | 0.00 | 0.00 | 0.00 | 33 | 1013.7 |
| 20260503201004 | 13 | 5 | 3.2 | 12.9 | 0.00 | 0.00 | 0.00 | 35 | 1013.7 |
| 20260503200505 | 13 | 25 | 6.4 | 16.1 | 0.00 | 0.00 | 0.00 | 34 | 1013.9 |
| 20260503200004 | 13 | 5 | 8.0 | 22.5 | 0.00 | 0.00 | 0.00 | 35 | 1013.8 |
| 20260503195505 | 13 | 2 | 4.8 | 14.5 | 0.00 | 0.00 | 0.00 | 35 | 1014.0 |
| 20260503195004 | 13 | 27 | 3.2 | 16.1 | 0.00 | 0.00 | 0.00 | 35 | 1014.0 |
| 20260503194504 | 13 | 317 | 9.7 | 14.5 | 0.00 | 0.00 | 0.00 | 35 | 1014.0 |
| 20260503194004 | 13 | 15 | 9.7 | 14.5 | 0.00 | 0.00 | 0.00 | 34 | 1014.1 |
| 20260503193505 | 13 | 5 | 6.4 | 14.5 | 0.00 | 0.00 | 0.00 | 35 | 1014.1 |
| 20260503193003 | 12 | 21 | 8.0 | 16.1 | 0.00 | 0.00 | 0.00 | 34 | 1014.1 |
| 20260503192504 | 12 | 356 | 8.0 | 14.5 | 0.00 | 0.00 | 0.00 | 35 | 1014.2 |